千帆星座-214(QIANFAN-214)

导读

**QIANFAN-214(NORAD编号69813)卫星摘要** QIANFAN-214(千帆214)是中国千帆低轨极轨星座的成员卫星,由上海垣信卫星科技有限公司运营,格思航天研制,2026年7月4日在太原卫星发射中心随千帆极轨13组卫星,由长征六号改运载火箭发射入轨,为长征系列运载火箭第655次飞行任务。 该卫星属轻量化光学遥感平台,单星重约80公斤,运行于太阳同步轨道,具备亚米级分辨率成像能力与边缘智能处理功能,主要服务于自然资源监测、城市精细化管理、应急响应等领域,可填补我国中高纬度地区常态化观测空白,是千帆星座2027年百星组网规划的重要组成部分,当前在轨运行状态稳定。

基本信息
目录编号:
69813
目录名称:
QIANFAN-214
国际标识:
2026-153P
轨道中心:
EARTH
卫星名称:
千帆星座-214
卫星全名:
千帆星座-214(QIANFAN-214)
卫星状态:
在轨 (已飞行63 天)
发射日期:
2026-07-04 UTC
国别 :
中国 (CN)
星等 :
--
轨道信息
数据来源 国际轨道数据 AOE轨道数据
星历时间 2026-09-05T05:25:22+0800
9小时前
查看轨道信息
2026-08-30T04:00:00+0800
6天前
查看轨道信息
半长轴 7214.158km 7214.177km
偏心率 0.0008694 0.0009256
轨道倾角 88.998° 88.998°
近地点辐角 36.817° 54.746°
升交点赤经 353.149° 353.834°
平近点角 323.361° 18.663°
近地点 829.749km 829.362km
远地点 842.293km 842.718km
周期 101.634分钟 101.634分钟
每日圈数 14.168516 14.16846
详细信息
卫星平台:
214
覆盖范围:
全球
运营商:
上海垣信卫星科技有限公司
运营商所在国:
中国
使用方式:
暂无
卫星简介
千帆星座,也被称为“G60星链”计划,是中国版“星链”的重要组成部分,旨在打造一个由1.4万多颗低轨宽频多媒体卫星构成的庞大星座。千帆星座计划由上海垣信卫星科技有限公司负责实施,于2023年启动建设。该项目是我国第二个低轨卫星大星座,旨在通过构建庞大的卫星网络,为全球用户提供高质量的通信和宽带互联网服务。
2D轨道图
3D轨道图
轨道高度分析图
轨道倾角分析图
轨道综合分析图
查看轨道综合分析图